Time,TemperatureF,DewpointF,PressureIn,WindDirection,WindDirectionDegrees,WindSpeedMPH,WindSpeedGustMPH,Humidity,HourlyPrecipIn,Conditions,Clouds,dailyrainin,SolarRadiationWatts/m^2,SoftwareType,DateUTC
2013-02-16 00:11:00,29.0,21.0,-100.00,SE,145,0.0,0.0,72,0.00,,,0.00,0.000000,,2013-02-16 08:11:00,
2013-02-16 00:21:00,29.0,21.0,-100.00,SE,145,0.0,0.0,72,0.00,,,0.00,0.000000,,2013-02-16 08:21:00,
2013-02-16 00:31:00,29.0,21.0,-100.00,SE,145,0.0,0.0,72,0.00,,,0.00,0.000000,,2013-02-16 08:31:00,
2013-02-16 00:41:00,29.0,21.0,-100.00,SE,145,0.0,0.0,72,0.00,,,0.00,0.000000,,2013-02-16 08:41:00,
2013-02-16 01:11:00,28.0,19.0,-100.00,SSE,168,0.0,3.0,68,0.00,,,0.00,0.000000,,2013-02-16 09:11:00,
2013-02-16 01:21:00,28.0,19.0,-100.00,SSE,168,0.0,3.0,68,0.00,,,0.00,0.000000,,2013-02-16 09:21:00,
2013-02-16 01:31:00,28.0,19.0,-100.00,SSE,168,0.0,3.0,68,0.00,,,0.00,0.000000,,2013-02-16 09:31:00,
2013-02-16 01:42:00,28.0,19.0,-100.00,SSE,168,0.0,3.0,68,0.00,,,0.00,0.000000,,2013-02-16 09:42:00,
2013-02-16 02:11:00,27.0,17.0,-100.00,SSE,165,0.0,2.0,65,0.00,,,-99.99,0.000000,,2013-02-16 10:11:00,
2013-02-16 02:21:00,27.0,17.0,-100.00,SSE,165,0.0,2.0,65,0.00,,,-99.99,0.000000,,2013-02-16 10:21:00,
2013-02-16 02:31:00,27.0,17.0,-100.00,SSE,165,0.0,2.0,65,0.00,,,-99.99,0.000000,,2013-02-16 10:31:00,
2013-02-16 02:41:00,27.0,17.0,-100.00,SSE,165,0.0,2.0,65,0.00,,,-99.99,0.000000,,2013-02-16 10:41:00,
2013-02-16 03:11:00,26.0,14.0,-100.00,SSE,148,0.0,0.0,59,0.00,,,-99.99,0.000000,,2013-02-16 11:11:00,
2013-02-16 03:22:00,26.0,14.0,-100.00,SSE,148,0.0,0.0,59,0.00,,,-99.99,0.000000,,2013-02-16 11:22:00,
2013-02-16 03:31:00,26.0,14.0,-100.00,SSE,148,0.0,0.0,59,0.00,,,-99.99,0.000000,,2013-02-16 11:31:00,
2013-02-16 03:42:00,26.0,14.0,-100.00,SSE,148,0.0,0.0,59,0.00,,,-99.99,0.000000,,2013-02-16 11:42:00,
2013-02-16 04:12:00,26.0,12.0,-100.00,SE,141,0.0,0.0,55,0.00,,,0.00,0.000000,,2013-02-16 12:12:00,
2013-02-16 04:22:00,26.0,12.0,-100.00,SE,141,0.0,0.0,55,0.00,,,0.00,0.000000,,2013-02-16 12:22:00,
2013-02-16 04:32:00,26.0,12.0,-100.00,SE,141,0.0,0.0,55,0.00,,,0.00,0.000000,,2013-02-16 12:32:00,
2013-02-16 04:42:00,26.0,12.0,-100.00,SE,141,0.0,0.0,55,0.00,,,0.00,0.000000,,2013-02-16 12:42:00,
2013-02-16 05:11:00,26.0,10.0,-100.00,SSE,148,0.0,0.0,50,0.00,,,-99.99,0.000000,,2013-02-16 13:11:00,
2013-02-16 05:21:00,26.0,10.0,-100.00,SSE,148,0.0,0.0,50,0.00,,,-99.99,0.000000,,2013-02-16 13:21:00,
2013-02-16 05:31:00,26.0,10.0,-100.00,SSE,148,0.0,0.0,50,0.00,,,-99.99,0.000000,,2013-02-16 13:31:00,
2013-02-16 05:41:00,26.0,10.0,-100.00,SSE,148,0.0,0.0,50,0.00,,,-99.99,0.000000,,2013-02-16 13:41:00,
2013-02-16 06:11:00,26.0,9.0,-100.00,SE,143,0.0,0.0,47,0.00,,,0.00,0.000000,,2013-02-16 14:11:00,
2013-02-16 06:21:00,26.0,9.0,-100.00,SE,143,0.0,0.0,47,0.00,,,0.00,0.000000,,2013-02-16 14:21:00,
2013-02-16 06:32:00,26.0,9.0,-100.00,SE,143,0.0,0.0,47,0.00,,,0.00,0.000000,,2013-02-16 14:32:00,
2013-02-16 06:41:00,26.0,9.0,-100.00,SE,143,0.0,0.0,47,0.00,,,0.00,0.000000,,2013-02-16 14:41:00,
2013-02-16 07:11:00,26.0,8.0,-100.00,SE,138,0.0,2.0,45,0.00,,,-99.99,0.000000,,2013-02-16 15:11:00,
2013-02-16 07:21:00,26.0,8.0,-100.00,SE,138,0.0,2.0,45,0.00,,,-99.99,0.000000,,2013-02-16 15:21:00,
2013-02-16 07:31:00,26.0,8.0,-100.00,SE,138,0.0,2.0,45,0.00,,,-99.99,0.000000,,2013-02-16 15:31:00,
2013-02-16 07:41:00,26.0,8.0,-100.00,SE,138,0.0,2.0,45,0.00,,,-99.99,0.000000,,2013-02-16 15:41:00,
2013-02-16 08:11:00,29.0,8.0,-100.00,SSE,156,0.0,0.0,40,0.00,,,0.00,44.000000,,2013-02-16 16:11:00,
2013-02-16 08:21:00,29.0,8.0,-100.00,SSE,156,0.0,0.0,40,0.00,,,0.00,44.000000,,2013-02-16 16:21:00,
2013-02-16 08:32:00,29.0,8.0,-100.00,SSE,156,0.0,0.0,40,0.00,,,0.00,44.000000,,2013-02-16 16:32:00,
2013-02-16 08:41:00,29.0,8.0,-100.00,SSE,156,0.0,0.0,40,0.00,,,0.00,44.000000,,2013-02-16 16:41:00,
2013-02-16 09:11:00,38.0,10.0,-100.00,SE,145,0.0,3.0,31,0.00,,,0.00,213.000000,,2013-02-16 17:11:00,
2013-02-16 09:21:00,38.0,10.0,-100.00,SE,145,0.0,3.0,31,0.00,,,0.00,213.000000,,2013-02-16 17:21:00,
2013-02-16 09:31:00,38.0,10.0,-100.00,SE,145,0.0,3.0,31,0.00,,,0.00,213.000000,,2013-02-16 17:31:00,
2013-02-16 09:41:00,38.0,10.0,-100.00,SE,145,0.0,3.0,31,0.00,,,0.00,213.000000,,2013-02-16 17:41:00,
2013-02-16 10:11:00,42.0,15.0,-100.00,SSE,148,0.0,0.0,33,0.00,,,0.00,267.000000,,2013-02-16 18:11:00,
2013-02-16 10:21:00,42.0,15.0,-100.00,SSE,148,0.0,0.0,33,0.00,,,0.00,267.000000,,2013-02-16 18:21:00,
2013-02-16 10:32:00,42.0,15.0,-100.00,SSE,148,0.0,0.0,33,0.00,,,0.00,267.000000,,2013-02-16 18:32:00,
2013-02-16 10:41:00,42.0,15.0,-100.00,SSE,148,0.0,0.0,33,0.00,,,0.00,267.000000,,2013-02-16 18:41:00,
2013-02-16 11:11:00,46.0,14.0,-100.00,SE,146,0.0,0.0,27,0.00,,,-99.99,344.000000,,2013-02-16 19:11:00,
2013-02-16 11:21:00,46.0,14.0,-100.00,SE,146,0.0,0.0,27,0.00,,,-99.99,344.000000,,2013-02-16 19:21:00,
2013-02-16 11:31:00,46.0,14.0,-100.00,SE,146,0.0,0.0,27,0.00,,,-99.99,344.000000,,2013-02-16 19:31:00,
2013-02-16 11:42:00,46.0,14.0,-100.00,SE,146,0.0,0.0,27,0.00,,,-99.99,344.000000,,2013-02-16 19:42:00,
2013-02-16 12:11:00,51.0,14.0,-100.00,SSE,148,0.0,5.0,22,0.00,,,0.00,371.000000,,2013-02-16 20:11:00,
2013-02-16 12:21:00,51.0,14.0,-100.00,SSE,148,0.0,5.0,22,0.00,,,0.00,371.000000,,2013-02-16 20:21:00,
2013-02-16 12:32:00,51.0,14.0,-100.00,SSE,148,0.0,5.0,22,0.00,,,0.00,371.000000,,2013-02-16 20:32:00,
2013-02-16 12:42:00,51.0,14.0,-100.00,SSE,148,0.0,5.0,22,0.00,,,0.00,371.000000,,2013-02-16 20:42:00,
2013-02-16 13:11:00,56.0,-18.0,-100.00,South,177,6.0,18.0,4,0.00,,,0.00,439.000000,,2013-02-16 21:11:00,
2013-02-16 13:21:00,56.0,-18.0,-100.00,South,177,6.0,18.0,4,0.00,,,0.00,439.000000,,2013-02-16 21:21:00,
2013-02-16 14:11:00,58.0,-22.0,-100.00,South,191,8.0,21.0,3,0.00,,,0.00,582.000000,,2013-02-16 22:11:00,
2013-02-16 14:21:00,58.0,-22.0,-100.00,South,191,8.0,21.0,3,0.00,,,0.00,582.000000,,2013-02-16 22:21:00,
2013-02-16 15:11:00,59.0,-8.0,-100.00,SSW,213,7.0,18.0,6,0.00,,,0.00,726.000000,,2013-02-16 23:11:00,
2013-02-16 15:21:00,59.0,-8.0,-100.00,SSW,213,7.0,18.0,6,0.00,,,0.00,726.000000,,2013-02-16 23:21:00,
2013-02-16 16:12:00,57.0,-4.0,-100.00,SW,221,8.0,18.0,8,0.00,,,-99.99,621.000000,,2013-02-17 00:12:00,
2013-02-16 16:21:00,57.0,-4.0,-100.00,SW,221,8.0,18.0,8,0.00,,,-99.99,621.000000,,2013-02-17 00:21:00,
2013-02-16 17:11:00,51.0,-4.0,-100.00,SSW,210,7.0,15.0,10,0.00,,,0.00,227.000000,,2013-02-17 01:11:00,
2013-02-16 17:21:00,51.0,-4.0,-100.00,SSW,210,7.0,15.0,10,0.00,,,0.00,227.000000,,2013-02-17 01:21:00,
2013-02-16 18:11:00,48.0,-4.0,-100.00,South,173,2.0,12.0,11,0.00,,,0.00,42.000000,,2013-02-17 02:11:00,
2013-02-16 18:21:00,48.0,-4.0,-100.00,South,173,2.0,12.0,11,0.00,,,0.00,42.000000,,2013-02-17 02:21:00,
2013-02-16 19:11:00,46.0,2.0,-100.00,South,182,4.0,8.0,16,0.00,,,0.00,0.000000,,2013-02-17 03:11:00,
2013-02-16 20:11:00,41.0,7.0,-100.00,SE,125,0.0,8.0,24,0.00,,,0.00,0.000000,,2013-02-17 04:11:00,
2013-02-16 20:21:00,41.0,7.0,-100.00,SE,125,0.0,8.0,24,0.00,,,0.00,0.000000,,2013-02-17 04:21:00,
2013-02-16 20:31:00,41.0,7.0,-100.00,SE,125,0.0,8.0,24,0.00,,,0.00,0.000000,,2013-02-17 04:31:00,
2013-02-16 20:41:00,41.0,7.0,-100.00,SE,125,0.0,8.0,24,0.00,,,0.00,0.000000,,2013-02-17 04:41:00,
2013-02-16 21:12:00,36.0,9.0,-100.00,SE,137,0.0,6.0,32,0.00,,,0.00,0.000000,,2013-02-17 05:12:00,
2013-02-16 21:22:00,36.0,9.0,-100.00,SE,137,0.0,6.0,32,0.00,,,0.00,0.000000,,2013-02-17 05:22:00,
2013-02-16 21:32:00,36.0,9.0,-100.00,SE,137,0.0,6.0,32,0.00,,,0.00,0.000000,,2013-02-17 05:32:00,
2013-02-16 21:42:00,36.0,9.0,-100.00,SE,137,0.0,6.0,32,0.00,,,0.00,0.000000,,2013-02-17 05:42:00,
2013-02-16 22:11:00,32.0,7.0,-100.00,SE,125,0.0,6.0,35,0.00,,,0.00,0.000000,,2013-02-17 06:11:00,
2013-02-16 22:21:00,32.0,7.0,-100.00,SE,125,0.0,6.0,35,0.00,,,0.00,0.000000,,2013-02-17 06:21:00,
2013-02-16 22:31:00,32.0,7.0,-100.00,SE,125,0.0,6.0,35,0.00,,,0.00,0.000000,,2013-02-17 06:31:00,
2013-02-16 22:41:00,32.0,7.0,-100.00,SE,125,0.0,6.0,35,0.00,,,0.00,0.000000,,2013-02-17 06:41:00,
2013-02-16 23:11:00,32.0,8.0,-100.00,SE,136,1.0,7.0,36,0.00,,,0.00,0.000000,,2013-02-17 07:11:00,
2013-02-16 23:21:00,32.0,8.0,-100.00,SE,136,1.0,7.0,36,0.00,,,0.00,0.000000,,2013-02-17 07:21:00,
2013-02-16 23:31:00,32.0,8.0,-100.00,SE,136,1.0,7.0,36,0.00,,,0.00,0.000000,,2013-02-17 07:31:00,
2013-02-16 23:41:00,32.0,8.0,-100.00,SE,136,1.0,7.0,36,0.00,,,0.00,0.000000,,2013-02-17 07:41:00,